New York Downtown Manhattan/w, NY

4:55 PM EST on November 12, 2019 (GMT -0500)
New York Downtown Manhattan/w

Weather History for KJRB - June, 2019

Change the Weather History Date:

Friday, June 7, 2019

  Actual Average (WUND) Record (WUND)
Temperature  
Mean Temperature 72 °F -  
Max Temperature 80 °F - - (-1)
Min Temperature 63 °F - - (-1)
Cooling Degree Days 6    
Growing Degree Days 22 (Base 50)    
Moisture  
Dew Point 61 °F    
Average Humidity 70    
Maximum Humidity 93    
Minimum Humidity 52    
Precipitation  
Precipitation 0.04 in - - ()
Sea Level Pressure  
Sea Level Pressure 29.93 in    
Wind  
Wind Speed 4 mph ()    
Max Wind Speed 14 mph    
Max Gust Speed 56 mph    
Visibility 10.0 miles    
Events      
Averages and records for this station are not official NWS values.
T = Trace of Precipitation, MM = Missing Value Source: Averaged Metar Reports

Daily Weather History Graph

Daily Weather History Graph

Search for Another Location

Airport or City:

Astronomy

Jun. 07, 2019 Rise Set
Actual Time 5:25 AM EDT 8:24 PM EDT
Civil Twilight 4:52 AM EDT 8:57 PM EDT
Nautical Twilight 4:10 AM EDT 9:39 PM EDT
Astronomical Twilight 3:21 AM EDT 10:28 PM EDT
Moon 9:39 AM EDT (6/7) No Moon Set
Length of Visible Light 16h 05m
Length of Day
14h 59m
Waxing Crescent, 22% of the Moon is Illuminated
Jun 7
Waxing Crescent
Jun 10
First Quarter
Jun 17
Full
Jun 25
Last Quarter
Jul 2
New

Hourly Weather History & Observations

Time (EDT) Temp. Dew Point Humidity Pressure Visibility Wind Dir Wind Speed Gust Speed Precip Events Conditions
12:56 AM 73.0 °F 60.1 °F 64% 29.86 in 10.0 mi Calm Calm - N/A   Clear
1:56 AM 71.1 °F 60.1 °F 68% 29.86 in 10.0 mi NNE 5.8 mph - N/A   Clear
2:56 AM 69.1 °F 60.1 °F 73% 29.86 in 10.0 mi SW 3.5 mph - N/A   Clear
3:56 AM 68.0 °F 61.0 °F 78% 29.85 in 10.0 mi Calm Calm - N/A   Clear
4:56 AM 66.9 °F 61.0 °F 81% 29.86 in 10.0 mi ENE 8.1 mph - N/A   Clear
5:56 AM 66.9 °F 62.1 °F 84% 29.88 in 10.0 mi NE 6.9 mph - N/A   Clear
6:56 AM 69.1 °F 60.1 °F 73% 29.90 in 10.0 mi ENE 6.9 mph - N/A   Clear
7:56 AM 70.0 °F 60.1 °F 71% 29.91 in 10.0 mi Variable 3.5 mph - N/A   Clear
8:56 AM 71.1 °F 59.0 °F 66% 29.92 in 10.0 mi Calm Calm - N/A   Clear
9:56 AM 73.0 °F 57.9 °F 59% 29.93 in 10.0 mi NE 5.8 mph - 0.01 in   Clear
10:56 AM 73.9 °F 59.0 °F 59% 29.94 in 10.0 mi NE 4.6 mph - N/A   Clear
11:56 AM 75.0 °F 59.0 °F 57% 29.95 in 10.0 mi ENE 6.9 mph - N/A   Clear
12:56 PM 78.1 °F 60.1 °F 54% 29.95 in 10.0 mi ENE 4.6 mph - N/A   Clear
1:56 PM 78.1 °F 59.0 °F 52% 29.94 in 10.0 mi Calm Calm - N/A   Mostly Cloudy
2:56 PM 78.1 °F 63.0 °F 60% 29.92 in 10.0 mi West 13.8 mph 42.6 mph N/A   Mostly Cloudy
3:56 PM 79.0 °F 64.0 °F 60% 29.92 in 10.0 mi West 6.9 mph - N/A   Scattered Clouds
4:56 PM 75.9 °F 62.1 °F 62% 29.92 in 10.0 mi SSW 12.7 mph 56.4 mph 0.01 in   Clear
5:56 PM 72.0 °F 62.1 °F 71% 29.94 in 10.0 mi Variable 3.5 mph - 0.02 in   Clear
6:56 PM 71.1 °F 62.1 °F 73% 29.95 in 10.0 mi SSE 4.6 mph - N/A   Clear
7:56 PM 69.1 °F 62.1 °F 78% 29.97 in 10.0 mi South 8.1 mph - N/A   Clear
8:56 PM 68.0 °F 62.1 °F 81% 29.97 in 10.0 mi South 5.8 mph - N/A   Clear
9:56 PM 66.9 °F 62.1 °F 84% 29.99 in 10.0 mi SSW 3.5 mph - N/A   Clear
10:56 PM 64.0 °F 61.0 °F 90% 30.01 in 10.0 mi West 4.6 mph - N/A   Clear
11:56 PM 63.0 °F 61.0 °F 93% 30.02 in 10.0 mi WSW 4.6 mph - N/A   Clear